owner,sensor,date,latitude,longitude,air_pressure(mBar),qcFlag 
DISL,ioos:station:DISL:BSCA:1,2018-07-01T00:00:00Z,30.3288,-87.8293,9999.0,11144222 
DISL,ioos:station:DISL:BSCA:1,2018-07-01T00:30:00Z,30.3288,-87.8293,9999.0,11144222 
DISL,ioos:station:DISL:BSCA:1,2018-07-01T01:00:00Z,30.3288,-87.8293,9999.0,11144222 
DISL,ioos:station:DISL:BSCA:1,2018-07-01T01:30:00Z,30.3288,-87.8293,9999.0,11144222 
DISL,ioos:station:DISL:BSCA:1,2018-07-01T02:00:00Z,30.3288,-87.8293,9999.0,11144222 
DISL,ioos:station:DISL:BSCA:1,2018-07-01T02:30:00Z,30.3288,-87.8293,9999.0,11144222 
DISL,ioos:station:DISL:BSCA:1,2018-07-01T03:00:00Z,30.3288,-87.8293,9999.0,11144222 
DISL,ioos:station:DISL:BSCA:1,2018-07-01T03:30:00Z,30.3288,-87.8293,9999.0,11144222 
DISL,ioos:station:DISL:BSCA:1,2018-07-01T04:00:00Z,30.3288,-87.8293,9999.0,11144222 
DISL,ioos:station:DISL:BSCA:1,2018-07-01T04:30:00Z,30.3288,-87.8293,9999.0,11144222 
DISL,ioos:station:DISL:BSCA:1,2018-07-01T05:00:00Z,30.3288,-87.8293,9999.0,11144222 
DISL,ioos:station:DISL:BSCA:1,2018-07-01T05:30:00Z,30.3288,-87.8293,9999.0,11144222 
DISL,ioos:station:DISL:BSCA:1,2018-07-01T06:00:00Z,30.3288,-87.8293,9999.0,11144222 
DISL,ioos:station:DISL:BSCA:1,2018-07-01T06:30:00Z,30.3288,-87.8293,9999.0,11144222 
DISL,ioos:station:DISL:BSCA:1,2018-07-01T07:00:00Z,30.3288,-87.8293,9999.0,11144222 
DISL,ioos:station:DISL:BSCA:1,2018-07-01T07:30:00Z,30.3288,-87.8293,9999.0,11144222 
DISL,ioos:station:DISL:BSCA:1,2018-07-01T08:00:00Z,30.3288,-87.8293,9999.0,11144222 
DISL,ioos:station:DISL:BSCA:1,2018-07-01T08:30:00Z,30.3288,-87.8293,9999.0,11144222 
DISL,ioos:station:DISL:BSCA:1,2018-07-01T09:00:00Z,30.3288,-87.8293,9999.0,11144222 
DISL,ioos:station:DISL:BSCA:1,2018-07-01T09:30:00Z,30.3288,-87.8293,9999.0,11144222 
DISL,ioos:station:DISL:BSCA:1,2018-07-01T10:00:00Z,30.3288,-87.8293,9999.0,11144222 
DISL,ioos:station:DISL:BSCA:1,2018-07-01T10:30:00Z,30.3288,-87.8293,9999.0,11144222 
DISL,ioos:station:DISL:BSCA:1,2018-07-01T11:00:00Z,30.3288,-87.8293,9999.0,11144222 
DISL,ioos:station:DISL:BSCA:1,2018-07-01T11:30:00Z,30.3288,-87.8293,9999.0,11144222 
DISL,ioos:station:DISL:BSCA:1,2018-07-01T12:00:00Z,30.3288,-87.8293,9999.0,11144222 
DISL,ioos:station:DISL:BSCA:1,2018-07-01T12:30:00Z,30.3288,-87.8293,9999.0,11144222 
DISL,ioos:station:DISL:BSCA:1,2018-07-01T13:00:00Z,30.3288,-87.8293,9999.0,11144222 
DISL,ioos:station:DISL:BSCA:1,2018-07-01T13:30:00Z,30.3288,-87.8293,9999.0,11144222 
DISL,ioos:station:DISL:BSCA:1,2018-07-01T14:00:00Z,30.3288,-87.8293,9999.0,11144222 
DISL,ioos:station:DISL:BSCA:1,2018-07-01T14:30:00Z,30.3288,-87.8293,9999.0,11144222 
DISL,ioos:station:DISL:BSCA:1,2018-07-01T15:00:00Z,30.3288,-87.8293,9999.0,11144222 
DISL,ioos:station:DISL:BSCA:1,2018-07-01T15:30:00Z,30.3288,-87.8293,9999.0,11144222 
DISL,ioos:station:DISL:BSCA:1,2018-07-01T16:00:00Z,30.3288,-87.8293,9999.0,11144222 
DISL,ioos:station:DISL:BSCA:1,2018-07-01T16:30:00Z,30.3288,-87.8293,9999.0,11144222 
DISL,ioos:station:DISL:BSCA:1,2018-07-01T17:00:00Z,30.3288,-87.8293,9999.0,11144222 
DISL,ioos:station:DISL:BSCA:1,2018-07-01T17:30:00Z,30.3288,-87.8293,9999.0,11144222 
DISL,ioos:station:DISL:BSCA:1,2018-07-01T18:00:00Z,30.3288,-87.8293,9999.0,11144222 
DISL,ioos:station:DISL:BSCA:1,2018-07-01T18:30:00Z,30.3288,-87.8293,9999.0,11144222 
DISL,ioos:station:DISL:BSCA:1,2018-07-01T19:00:00Z,30.3288,-87.8293,9999.0,11144222 
DISL,ioos:station:DISL:BSCA:1,2018-07-01T19:30:00Z,30.3288,-87.8293,9999.0,11144222 
DISL,ioos:station:DISL:BSCA:1,2018-07-01T20:00:00Z,30.3288,-87.8293,9999.0,11144222 
DISL,ioos:station:DISL:BSCA:1,2018-07-01T20:30:00Z,30.3288,-87.8293,9999.0,11144222 
DISL,ioos:station:DISL:BSCA:1,2018-07-01T21:00:00Z,30.3288,-87.8293,9999.0,11144222 
DISL,ioos:station:DISL:BSCA:1,2018-07-01T21:30:00Z,30.3288,-87.8293,9999.0,11144222 
DISL,ioos:station:DISL:BSCA:1,2018-07-01T22:00:00Z,30.3288,-87.8293,9999.0,11144222 
DISL,ioos:station:DISL:BSCA:1,2018-07-01T22:30:00Z,30.3288,-87.8293,9999.0,11144222 
DISL,ioos:station:DISL:BSCA:1,2018-07-01T23:00:00Z,30.3288,-87.8293,9999.0,11144222 
DISL,ioos:station:DISL:BSCA:1,2018-07-01T23:30:00Z,30.3288,-87.8293,9999.0,11144222 
DISL,ioos:station:DISL:BSCA:1,2018-07-02T00:00:00Z,30.3288,-87.8293,9999.0,11144222 
DISL,ioos:station:DISL:BSCA:1,2018-07-02T00:30:00Z,30.3288,-87.8293,9999.0,11144222 
DISL,ioos:station:DISL:BSCA:1,2018-07-02T01:00:00Z,30.3288,-87.8293,9999.0,11144222 
DISL,ioos:station:DISL:BSCA:1,2018-07-02T01:30:00Z,30.3288,-87.8293,9999.0,11144222 
DISL,ioos:station:DISL:BSCA:1,2018-07-02T02:00:00Z,30.3288,-87.8293,9999.0,11144222 
DISL,ioos:station:DISL:BSCA:1,2018-07-02T02:30:00Z,30.3288,-87.8293,9999.0,11144222 
DISL,ioos:station:DISL:BSCA:1,2018-07-02T03:00:00Z,30.3288,-87.8293,9999.0,11144222 
DISL,ioos:station:DISL:BSCA:1,2018-07-02T03:30:00Z,30.3288,-87.8293,9999.0,11144222 
DISL,ioos:station:DISL:BSCA:1,2018-07-02T04:00:00Z,30.3288,-87.8293,9999.0,11144222 
DISL,ioos:station:DISL:BSCA:1,2018-07-04T01:30:00Z,30.3288,-87.8293,1016.9,11111222 
DISL,ioos:station:DISL:BSCA:1,2018-07-04T02:00:00Z,30.3288,-87.8293,1016.9,11111222 
DISL,ioos:station:DISL:BSCA:1,2018-07-04T02:30:00Z,30.3288,-87.8293,1016.9,11111222 
DISL,ioos:station:DISL:BSCA:1,2018-07-04T03:00:00Z,30.3288,-87.8293,1017.6,11111222 
DISL,ioos:station:DISL:BSCA:1,2018-07-04T03:30:00Z,30.3288,-87.8293,1018.0,11111222 
DISL,ioos:station:DISL:BSCA:1,2018-07-04T04:00:00Z,30.3288,-87.8293,1018.0,11111222 
DISL,ioos:station:DISL:BSCA:1,2018-07-04T04:30:00Z,30.3288,-87.8293,1018.0,11111222 
DISL,ioos:station:DISL:BSCA:1,2018-07-04T05:00:00Z,30.3288,-87.8293,1018.0,11111222 
DISL,ioos:station:DISL:BSCA:1,2018-07-04T05:19:00Z,30.3288,-87.8293,1017.610195,1111122 
DISL,ioos:station:DISL:BSCA:1,2018-07-04T05:30:00Z,30.3288,-87.8293,1017.6,11111222 
DISL,ioos:station:DISL:BSCA:1,2018-07-04T06:00:00Z,30.3288,-87.8293,1017.6,11111222 
DISL,ioos:station:DISL:BSCA:1,2018-07-04T06:30:00Z,30.3288,-87.8293,1017.3,11111222 
DISL,ioos:station:DISL:BSCA:1,2018-07-04T07:00:00Z,30.3288,-87.8293,1017.3,11111222 
DISL,ioos:station:DISL:BSCA:1,2018-07-04T07:30:00Z,30.3288,-87.8293,1017.3,11111222 
DISL,ioos:station:DISL:BSCA:1,2018-07-04T08:00:00Z,30.3288,-87.8293,1017.3,11111222 
DISL,ioos:station:DISL:BSCA:1,2018-07-04T08:30:00Z,30.3288,-87.8293,1017.3,11111222 
DISL,ioos:station:DISL:BSCA:1,2018-07-04T09:00:00Z,30.3288,-87.8293,1016.9,11111222 
DISL,ioos:station:DISL:BSCA:1,2018-07-04T09:30:00Z,30.3288,-87.8293,1017.3,11111222 
DISL,ioos:station:DISL:BSCA:1,2018-07-04T10:00:00Z,30.3288,-87.8293,1017.3,11111222 
DISL,ioos:station:DISL:BSCA:1,2018-07-04T10:30:00Z,30.3288,-87.8293,1017.6,11111222 
DISL,ioos:station:DISL:BSCA:1,2018-07-04T11:00:00Z,30.3288,-87.8293,1017.6,11111222 
DISL,ioos:station:DISL:BSCA:1,2018-07-04T11:30:00Z,30.3288,-87.8293,1018.0,11111222 
DISL,ioos:station:DISL:BSCA:1,2018-07-04T12:00:00Z,30.3288,-87.8293,1018.3,11111222 
DISL,ioos:station:DISL:BSCA:1,2018-07-04T12:30:00Z,30.3288,-87.8293,1018.3,11111222 
DISL,ioos:station:DISL:BSCA:1,2018-07-04T13:00:00Z,30.3288,-87.8293,1018.6,11111222 
DISL,ioos:station:DISL:BSCA:1,2018-07-04T13:30:00Z,30.3288,-87.8293,1019.0,11111222 
DISL,ioos:station:DISL:BSCA:1,2018-07-04T14:00:00Z,30.3288,-87.8293,1019.0,11111222 
DISL,ioos:station:DISL:BSCA:1,2018-07-04T14:30:00Z,30.3288,-87.8293,1019.0,11111222 
DISL,ioos:station:DISL:BSCA:1,2018-07-04T15:00:00Z,30.3288,-87.8293,1019.0,11111222 
DISL,ioos:station:DISL:BSCA:1,2018-07-04T15:30:00Z,30.3288,-87.8293,1019.3,11111222 
DISL,ioos:station:DISL:BSCA:1,2018-07-04T16:00:00Z,30.3288,-87.8293,1019.3,11111222 
DISL,ioos:station:DISL:BSCA:1,2018-07-04T16:30:00Z,30.3288,-87.8293,1019.0,11111222 
DISL,ioos:station:DISL:BSCA:1,2018-07-04T17:00:00Z,30.3288,-87.8293,1018.6,11111222 
DISL,ioos:station:DISL:BSCA:1,2018-07-04T17:30:00Z,30.3288,-87.8293,1018.6,11111222 
DISL,ioos:station:DISL:BSCA:1,2018-07-04T18:00:00Z,30.3288,-87.8293,1018.3,11111222 
DISL,ioos:station:DISL:BSCA:1,2018-07-04T18:30:00Z,30.3288,-87.8293,1018.6,11111222 
DISL,ioos:station:DISL:BSCA:1,2018-07-04T19:00:00Z,30.3288,-87.8293,1018.3,11111222 
DISL,ioos:station:DISL:BSCA:1,2018-07-04T19:30:00Z,30.3288,-87.8293,1018.3,11111222 
DISL,ioos:station:DISL:BSCA:1,2018-07-04T20:00:00Z,30.3288,-87.8293,1018.0,11111222 
DISL,ioos:station:DISL:BSCA:1,2018-07-04T20:30:00Z,30.3288,-87.8293,1017.6,11111222 
DISL,ioos:station:DISL:BSCA:1,2018-07-04T21:00:00Z,30.3288,-87.8293,1017.6,11111222 
DISL,ioos:station:DISL:BSCA:1,2018-07-04T21:30:00Z,30.3288,-87.8293,1016.9,11111222 
DISL,ioos:station:DISL:BSCA:1,2018-07-04T22:00:00Z,30.3288,-87.8293,1017.3,11111222 
DISL,ioos:station:DISL:BSCA:1,2018-07-04T22:30:00Z,30.3288,-87.8293,1017.3,11111222 
DISL,ioos:station:DISL:BSCA:1,2018-07-04T23:00:00Z,30.3288,-87.8293,1017.6,11111222 
DISL,ioos:station:DISL:BSCA:1,2018-07-04T23:30:00Z,30.3288,-87.8293,1017.3,11111222 
DISL,ioos:station:DISL:BSCA:1,2018-07-05T00:00:00Z,30.3288,-87.8293,1017.3,11111222 
DISL,ioos:station:DISL:BSCA:1,2018-07-05T00:30:00Z,30.3288,-87.8293,1018.0,11111222 
DISL,ioos:station:DISL:BSCA:1,2018-07-05T01:00:00Z,30.3288,-87.8293,1018.3,11111222 
DISL,ioos:station:DISL:BSCA:1,2018-07-05T01:30:00Z,30.3288,-87.8293,1018.6,11111222 
DISL,ioos:station:DISL:BSCA:1,2018-07-05T02:00:00Z,30.3288,-87.8293,1019.0,11111222 
DISL,ioos:station:DISL:BSCA:1,2018-07-05T02:30:00Z,30.3288,-87.8293,1019.0,11111222 
DISL,ioos:station:DISL:BSCA:1,2018-07-05T03:00:00Z,30.3288,-87.8293,1019.0,11111222 
DISL,ioos:station:DISL:BSCA:1,2018-07-05T03:30:00Z,30.3288,-87.8293,1019.0,11111222 
DISL,ioos:station:DISL:BSCA:1,2018-07-05T04:00:00Z,30.3288,-87.8293,1019.3,11111222 
DISL,ioos:station:DISL:BSCA:1,2018-07-05T04:30:00Z,30.3288,-87.8293,1019.3,11111222 
DISL,ioos:station:DISL:BSCA:1,2018-07-05T05:00:00Z,30.3288,-87.8293,1019.6,11111222 
DISL,ioos:station:DISL:BSCA:1,2018-07-05T05:30:00Z,30.3288,-87.8293,1019.6,11111222 
DISL,ioos:station:DISL:BSCA:1,2018-07-05T06:00:00Z,30.3288,-87.8293,1019.0,11111222 
DISL,ioos:station:DISL:BSCA:1,2018-07-05T06:30:00Z,30.3288,-87.8293,1018.6,11111222 
DISL,ioos:station:DISL:BSCA:1,2018-07-05T07:00:00Z,30.3288,-87.8293,1018.3,11111222 
DISL,ioos:station:DISL:BSCA:1,2018-07-05T07:30:00Z,30.3288,-87.8293,1018.3,11111222 
DISL,ioos:station:DISL:BSCA:1,2018-07-05T08:00:00Z,30.3288,-87.8293,1018.3,11111222 
DISL,ioos:station:DISL:BSCA:1,2018-07-05T08:30:00Z,30.3288,-87.8293,1018.3,11111222 
DISL,ioos:station:DISL:BSCA:1,2018-07-05T09:00:00Z,30.3288,-87.8293,1018.3,11111222 
DISL,ioos:station:DISL:BSCA:1,2018-07-05T09:30:00Z,30.3288,-87.8293,1018.6,11111222 
DISL,ioos:station:DISL:BSCA:1,2018-07-05T10:00:00Z,30.3288,-87.8293,1019.0,11111222 
DISL,ioos:station:DISL:BSCA:1,2018-07-05T10:30:00Z,30.3288,-87.8293,1019.3,11111222 
DISL,ioos:station:DISL:BSCA:1,2018-07-05T11:00:00Z,30.3288,-87.8293,1019.0,11111222 
DISL,ioos:station:DISL:BSCA:1,2018-07-05T11:30:00Z,30.3288,-87.8293,1019.3,11111222 
DISL,ioos:station:DISL:BSCA:1,2018-07-05T12:00:00Z,30.3288,-87.8293,1019.6,11111222 
DISL,ioos:station:DISL:BSCA:1,2018-07-05T12:30:00Z,30.3288,-87.8293,1019.6,11111222 
DISL,ioos:station:DISL:BSCA:1,2018-07-05T13:00:00Z,30.3288,-87.8293,1020.0,11111222 
DISL,ioos:station:DISL:BSCA:1,2018-07-05T13:30:00Z,30.3288,-87.8293,1020.0,11111222 
DISL,ioos:station:DISL:BSCA:1,2018-07-05T14:00:00Z,30.3288,-87.8293,1020.0,11111222 
DISL,ioos:station:DISL:BSCA:1,2018-07-05T14:30:00Z,30.3288,-87.8293,1020.0,11111222 
DISL,ioos:station:DISL:BSCA:1,2018-07-05T15:00:00Z,30.3288,-87.8293,1020.0,11111222 
DISL,ioos:station:DISL:BSCA:1,2018-07-05T15:30:00Z,30.3288,-87.8293,1020.7,11111222 
DISL,ioos:station:DISL:BSCA:1,2018-07-05T16:00:00Z,30.3288,-87.8293,1020.7,11111222 
DISL,ioos:station:DISL:BSCA:1,2018-07-05T16:30:00Z,30.3288,-87.8293,1020.7,11111222 
DISL,ioos:station:DISL:BSCA:1,2018-07-05T17:00:00Z,30.3288,-87.8293,1020.7,11111222 
DISL,ioos:station:DISL:BSCA:1,2018-07-05T17:30:00Z,30.3288,-87.8293,1020.7,11111222 
DISL,ioos:station:DISL:BSCA:1,2018-07-05T18:00:00Z,30.3288,-87.8293,1020.3,11111222 
DISL,ioos:station:DISL:BSCA:1,2018-07-05T18:30:00Z,30.3288,-87.8293,1020.7,11111222 
DISL,ioos:station:DISL:BSCA:1,2018-07-05T19:00:00Z,30.3288,-87.8293,1020.0,11111222 
DISL,ioos:station:DISL:BSCA:1,2018-07-05T19:30:00Z,30.3288,-87.8293,1020.0,11111222 
DISL,ioos:station:DISL:BSCA:1,2018-07-05T20:00:00Z,30.3288,-87.8293,1020.0,11111222 
DISL,ioos:station:DISL:BSCA:1,2018-07-05T20:30:00Z,30.3288,-87.8293,1019.6,11111222 
DISL,ioos:station:DISL:BSCA:1,2018-07-05T21:00:00Z,30.3288,-87.8293,1019.6,11111222 
DISL,ioos:station:DISL:BSCA:1,2018-07-05T21:30:00Z,30.3288,-87.8293,1019.3,11111222 
DISL,ioos:station:DISL:BSCA:1,2018-07-05T22:00:00Z,30.3288,-87.8293,1019.3,11111222 
DISL,ioos:station:DISL:BSCA:1,2018-07-05T22:30:00Z,30.3288,-87.8293,1019.3,11111222 
DISL,ioos:station:DISL:BSCA:1,2018-07-05T23:00:00Z,30.3288,-87.8293,1019.3,11111222 
DISL,ioos:station:DISL:BSCA:1,2018-07-05T23:30:00Z,30.3288,-87.8293,1019.0,11111222 
DISL,ioos:station:DISL:BSCA:1,2018-07-06T00:00:00Z,30.3288,-87.8293,1019.3,11111222 
DISL,ioos:station:DISL:BSCA:1,2018-07-06T00:30:00Z,30.3288,-87.8293,1019.3,11111222 
DISL,ioos:station:DISL:BSCA:1,2018-07-06T01:00:00Z,30.3288,-87.8293,1019.6,11111222 
DISL,ioos:station:DISL:BSCA:1,2018-07-06T01:30:00Z,30.3288,-87.8293,1020.0,11111222 
DISL,ioos:station:DISL:BSCA:1,2018-07-06T02:00:00Z,30.3288,-87.8293,1020.3,11111222 
DISL,ioos:station:DISL:BSCA:1,2018-07-06T02:30:00Z,30.3288,-87.8293,1020.7,11111222 
DISL,ioos:station:DISL:BSCA:1,2018-07-06T03:00:00Z,30.3288,-87.8293,1021.0,11111222 
DISL,ioos:station:DISL:BSCA:1,2018-07-06T03:30:00Z,30.3288,-87.8293,1021.3,11111222 
DISL,ioos:station:DISL:BSCA:1,2018-07-06T04:00:00Z,30.3288,-87.8293,1021.3,11111222 
DISL,ioos:station:DISL:BSCA:1,2018-07-06T04:30:00Z,30.3288,-87.8293,1021.3,11111222 
DISL,ioos:station:DISL:BSCA:1,2018-07-06T05:00:00Z,30.3288,-87.8293,1021.0,11111222 
DISL,ioos:station:DISL:BSCA:1,2018-07-06T05:30:00Z,30.3288,-87.8293,1021.0,11111222 
DISL,ioos:station:DISL:BSCA:1,2018-07-06T06:00:00Z,30.3288,-87.8293,1021.0,11111222 
DISL,ioos:station:DISL:BSCA:1,2018-07-06T06:30:00Z,30.3288,-87.8293,1020.7,11111222 
DISL,ioos:station:DISL:BSCA:1,2018-07-06T07:00:00Z,30.3288,-87.8293,1020.3,11111222 
DISL,ioos:station:DISL:BSCA:1,2018-07-06T07:30:00Z,30.3288,-87.8293,1020.3,11111222 
DISL,ioos:station:DISL:BSCA:1,2018-07-06T08:00:00Z,30.3288,-87.8293,1020.3,11111222 
DISL,ioos:station:DISL:BSCA:1,2018-07-06T08:30:00Z,30.3288,-87.8293,1020.0,11111222 
DISL,ioos:station:DISL:BSCA:1,2018-07-06T09:00:00Z,30.3288,-87.8293,1020.0,11111222 
DISL,ioos:station:DISL:BSCA:1,2018-07-06T09:30:00Z,30.3288,-87.8293,1020.0,11111222 
DISL,ioos:station:DISL:BSCA:1,2018-07-06T10:00:00Z,30.3288,-87.8293,1020.0,11111222 
DISL,ioos:station:DISL:BSCA:1,2018-07-06T10:30:00Z,30.3288,-87.8293,1019.6,11111222 
DISL,ioos:station:DISL:BSCA:1,2018-07-06T11:00:00Z,30.3288,-87.8293,1020.0,11111222 
DISL,ioos:station:DISL:BSCA:1,2018-07-06T11:30:00Z,30.3288,-87.8293,1020.3,11111222 
DISL,ioos:station:DISL:BSCA:1,2018-07-06T12:00:00Z,30.3288,-87.8293,1020.3,11111222 
DISL,ioos:station:DISL:BSCA:1,2018-07-06T12:30:00Z,30.3288,-87.8293,1020.3,11111222 
DISL,ioos:station:DISL:BSCA:1,2018-07-06T13:00:00Z,30.3288,-87.8293,1020.3,11111222 
DISL,ioos:station:DISL:BSCA:1,2018-07-06T13:30:00Z,30.3288,-87.8293,1020.7,11111222 
DISL,ioos:station:DISL:BSCA:1,2018-07-06T14:00:00Z,30.3288,-87.8293,1020.7,11111222 
DISL,ioos:station:DISL:BSCA:1,2018-07-06T14:30:00Z,30.3288,-87.8293,1020.7,11111222 
DISL,ioos:station:DISL:BSCA:1,2018-07-06T15:00:00Z,30.3288,-87.8293,1020.7,11111222 
DISL,ioos:station:DISL:BSCA:1,2018-07-06T15:30:00Z,30.3288,-87.8293,1020.7,11111222 
DISL,ioos:station:DISL:BSCA:1,2018-07-06T16:00:00Z,30.3288,-87.8293,1021.0,11111222 
DISL,ioos:station:DISL:BSCA:1,2018-07-06T16:30:00Z,30.3288,-87.8293,1020.7,11111222 
DISL,ioos:station:DISL:BSCA:1,2018-07-06T17:00:00Z,30.3288,-87.8293,1020.7,11111222 
DISL,ioos:station:DISL:BSCA:1,2018-07-06T17:30:00Z,30.3288,-87.8293,1020.3,11111222 
DISL,ioos:station:DISL:BSCA:1,2018-07-06T18:00:00Z,30.3288,-87.8293,1020.0,11111222 
DISL,ioos:station:DISL:BSCA:1,2018-07-06T18:30:00Z,30.3288,-87.8293,1019.6,11111222 
DISL,ioos:station:DISL:BSCA:1,2018-07-06T19:00:00Z,30.3288,-87.8293,1019.3,11111222 
DISL,ioos:station:DISL:BSCA:1,2018-07-06T19:30:00Z,30.3288,-87.8293,1019.0,11111222 
DISL,ioos:station:DISL:BSCA:1,2018-07-06T20:00:00Z,30.3288,-87.8293,1018.6,11111222 
DISL,ioos:station:DISL:BSCA:1,2018-07-06T20:30:00Z,30.3288,-87.8293,1018.0,11111222 
DISL,ioos:station:DISL:BSCA:1,2018-07-06T21:00:00Z,30.3288,-87.8293,1018.0,11111222 
DISL,ioos:station:DISL:BSCA:1,2018-07-06T21:30:00Z,30.3288,-87.8293,1016.9,11111222 
DISL,ioos:station:DISL:BSCA:1,2018-07-06T22:00:00Z,30.3288,-87.8293,1016.9,11111222 
DISL,ioos:station:DISL:BSCA:1,2018-07-06T22:30:00Z,30.3288,-87.8293,1016.6,11111222 
DISL,ioos:station:DISL:BSCA:1,2018-07-06T23:00:00Z,30.3288,-87.8293,1016.6,11111222 
DISL,ioos:station:DISL:BSCA:1,2018-07-06T23:30:00Z,30.3288,-87.8293,1016.6,11111222 
DISL,ioos:station:DISL:BSCA:1,2018-07-07T00:00:00Z,30.3288,-87.8293,1016.9,11111222 
DISL,ioos:station:DISL:BSCA:1,2018-07-07T00:30:00Z,30.3288,-87.8293,1017.3,11111222 
DISL,ioos:station:DISL:BSCA:1,2018-07-07T01:00:00Z,30.3288,-87.8293,1017.6,11111222 
DISL,ioos:station:DISL:BSCA:1,2018-07-07T01:30:00Z,30.3288,-87.8293,1018.0,11111222 
DISL,ioos:station:DISL:BSCA:1,2018-07-07T02:00:00Z,30.3288,-87.8293,1018.3,11111222 
DISL,ioos:station:DISL:BSCA:1,2018-07-07T02:30:00Z,30.3288,-87.8293,1018.0,11111222 
DISL,ioos:station:DISL:BSCA:1,2018-07-07T03:00:00Z,30.3288,-87.8293,1018.0,11111222 
DISL,ioos:station:DISL:BSCA:1,2018-07-07T03:30:00Z,30.3288,-87.8293,1018.0,11111222 
DISL,ioos:station:DISL:BSCA:1,2018-07-07T04:00:00Z,30.3288,-87.8293,1017.6,11111222 
DISL,ioos:station:DISL:BSCA:1,2018-07-07T04:30:00Z,30.3288,-87.8293,1017.6,11111222 
DISL,ioos:station:DISL:BSCA:1,2018-07-07T05:00:00Z,30.3288,-87.8293,1017.6,11111222 
DISL,ioos:station:DISL:BSCA:1,2018-07-07T05:30:00Z,30.3288,-87.8293,1017.6,11111222 
DISL,ioos:station:DISL:BSCA:1,2018-07-07T06:00:00Z,30.3288,-87.8293,1017.6,11111222 
DISL,ioos:station:DISL:BSCA:1,2018-07-07T06:30:00Z,30.3288,-87.8293,1017.3,11111222 
DISL,ioos:station:DISL:BSCA:1,2018-07-07T07:00:00Z,30.3288,-87.8293,1017.3,11111222 
DISL,ioos:station:DISL:BSCA:1,2018-07-07T07:30:00Z,30.3288,-87.8293,1016.9,11111222 
DISL,ioos:station:DISL:BSCA:1,2018-07-07T08:00:00Z,30.3288,-87.8293,1016.6,11111222 
DISL,ioos:station:DISL:BSCA:1,2018-07-07T08:30:00Z,30.3288,-87.8293,1016.6,11111222 
DISL,ioos:station:DISL:BSCA:1,2018-07-07T09:00:00Z,30.3288,-87.8293,1016.6,11111222 
DISL,ioos:station:DISL:BSCA:1,2018-07-07T09:30:00Z,30.3288,-87.8293,1016.6,11111222 
DISL,ioos:station:DISL:BSCA:1,2018-07-07T10:00:00Z,30.3288,-87.8293,1016.6,11111222 
DISL,ioos:station:DISL:BSCA:1,2018-07-07T10:30:00Z,30.3288,-87.8293,1016.9,11111222 
DISL,ioos:station:DISL:BSCA:1,2018-07-07T11:00:00Z,30.3288,-87.8293,1016.9,11111222 
DISL,ioos:station:DISL:BSCA:1,2018-07-07T11:30:00Z,30.3288,-87.8293,1017.6,11111222 
DISL,ioos:station:DISL:BSCA:1,2018-07-07T12:00:00Z,30.3288,-87.8293,1017.6,11111222 
DISL,ioos:station:DISL:BSCA:1,2018-07-07T12:30:00Z,30.3288,-87.8293,1018.0,11111222 
DISL,ioos:station:DISL:BSCA:1,2018-07-07T13:00:00Z,30.3288,-87.8293,1018.3,11111222 
DISL,ioos:station:DISL:BSCA:1,2018-07-07T13:30:00Z,30.3288,-87.8293,1018.3,11111222 
DISL,ioos:station:DISL:BSCA:1,2018-07-07T14:00:00Z,30.3288,-87.8293,1018.3,11111222 
DISL,ioos:station:DISL:BSCA:1,2018-07-07T14:30:00Z,30.3288,-87.8293,1018.3,11111222 
DISL,ioos:station:DISL:BSCA:1,2018-07-07T15:00:00Z,30.3288,-87.8293,1018.3,11111222 
DISL,ioos:station:DISL:BSCA:1,2018-07-07T15:30:00Z,30.3288,-87.8293,1018.6,11111222 
DISL,ioos:station:DISL:BSCA:1,2018-07-07T16:00:00Z,30.3288,-87.8293,1018.3,11111222 
DISL,ioos:station:DISL:BSCA:1,2018-07-07T16:30:00Z,30.3288,-87.8293,1018.3,11111222 
DISL,ioos:station:DISL:BSCA:1,2018-07-07T17:00:00Z,30.3288,-87.8293,1018.3,11111222 
DISL,ioos:station:DISL:BSCA:1,2018-07-07T17:30:00Z,30.3288,-87.8293,1018.0,11111222 
DISL,ioos:station:DISL:BSCA:1,2018-07-07T18:00:00Z,30.3288,-87.8293,1017.6,11111222 
DISL,ioos:station:DISL:BSCA:1,2018-07-07T18:30:00Z,30.3288,-87.8293,1017.6,11111222 
DISL,ioos:station:DISL:BSCA:1,2018-07-07T19:00:00Z,30.3288,-87.8293,1017.3,11111222 
DISL,ioos:station:DISL:BSCA:1,2018-07-07T19:30:00Z,30.3288,-87.8293,1016.9,11111222 
DISL,ioos:station:DISL:BSCA:1,2018-07-07T20:00:00Z,30.3288,-87.8293,1016.6,11111222 
DISL,ioos:station:DISL:BSCA:1,2018-07-07T20:30:00Z,30.3288,-87.8293,1015.9,11111222 
DISL,ioos:station:DISL:BSCA:1,2018-07-07T21:00:00Z,30.3288,-87.8293,1016.3,11111222 
DISL,ioos:station:DISL:BSCA:1,2018-07-07T21:30:00Z,30.3288,-87.8293,1016.3,11111222 
DISL,ioos:station:DISL:BSCA:1,2018-07-07T22:00:00Z,30.3288,-87.8293,1015.9,11111222 
DISL,ioos:station:DISL:BSCA:1,2018-07-07T22:30:00Z,30.3288,-87.8293,1016.3,11111222 
DISL,ioos:station:DISL:BSCA:1,2018-07-07T23:00:00Z,30.3288,-87.8293,1016.3,11111222 
DISL,ioos:station:DISL:BSCA:1,2018-07-07T23:30:00Z,30.3288,-87.8293,1016.3,11111222 
DISL,ioos:station:DISL:BSCA:1,2018-07-08T00:00:00Z,30.3288,-87.8293,1016.6,11111222 
DISL,ioos:station:DISL:BSCA:1,2018-07-08T00:30:00Z,30.3288,-87.8293,1016.9,11111222 
DISL,ioos:station:DISL:BSCA:1,2018-07-08T01:00:00Z,30.3288,-87.8293,1017.3,11111222 
DISL,ioos:station:DISL:BSCA:1,2018-07-08T01:30:00Z,30.3288,-87.8293,1016.9,11111222 
DISL,ioos:station:DISL:BSCA:1,2018-07-08T02:00:00Z,30.3288,-87.8293,1017.3,11111222 
DISL,ioos:station:DISL:BSCA:1,2018-07-08T02:30:00Z,30.3288,-87.8293,1017.3,11111222 
DISL,ioos:station:DISL:BSCA:1,2018-07-08T03:00:00Z,30.3288,-87.8293,1017.6,11111222 
DISL,ioos:station:DISL:BSCA:1,2018-07-08T03:30:00Z,30.3288,-87.8293,1018.0,11111222 
DISL,ioos:station:DISL:BSCA:1,2018-07-08T04:00:00Z,30.3288,-87.8293,1018.3,11111222 
DISL,ioos:station:DISL:BSCA:1,2018-07-08T04:30:00Z,30.3288,-87.8293,1018.3,11111222 
DISL,ioos:station:DISL:BSCA:1,2018-07-08T05:00:00Z,30.3288,-87.8293,1018.3,11111222 
DISL,ioos:station:DISL:BSCA:1,2018-07-08T05:30:00Z,30.3288,-87.8293,1018.3,11111222 
DISL,ioos:station:DISL:BSCA:1,2018-07-08T06:00:00Z,30.3288,-87.8293,1018.0,11111222 
DISL,ioos:station:DISL:BSCA:1,2018-07-08T06:30:00Z,30.3288,-87.8293,1018.0,11111222 
DISL,ioos:station:DISL:BSCA:1,2018-07-08T07:00:00Z,30.3288,-87.8293,1017.6,11111222 
DISL,ioos:station:DISL:BSCA:1,2018-07-08T07:30:00Z,30.3288,-87.8293,1017.6,11111222 
DISL,ioos:station:DISL:BSCA:1,2018-07-08T08:00:00Z,30.3288,-87.8293,1018.0,11111222 
DISL,ioos:station:DISL:BSCA:1,2018-07-08T08:30:00Z,30.3288,-87.8293,1017.6,11111222 
DISL,ioos:station:DISL:BSCA:1,2018-07-08T09:00:00Z,30.3288,-87.8293,1018.0,11111222 
DISL,ioos:station:DISL:BSCA:1,2018-07-08T09:30:00Z,30.3288,-87.8293,1018.0,11111222 
DISL,ioos:station:DISL:BSCA:1,2018-07-08T10:00:00Z,30.3288,-87.8293,1018.3,11111222 
DISL,ioos:station:DISL:BSCA:1,2018-07-08T10:30:00Z,30.3288,-87.8293,1018.3,11111222 
DISL,ioos:station:DISL:BSCA:1,2018-07-08T11:00:00Z,30.3288,-87.8293,1019.0,11111222 
DISL,ioos:station:DISL:BSCA:1,2018-07-08T11:30:00Z,30.3288,-87.8293,1019.0,11111222 
DISL,ioos:station:DISL:BSCA:1,2018-07-08T12:00:00Z,30.3288,-87.8293,1019.0,11111222 
DISL,ioos:station:DISL:BSCA:1,2018-07-08T12:30:00Z,30.3288,-87.8293,1019.3,11111222 
DISL,ioos:station:DISL:BSCA:1,2018-07-08T13:00:00Z,30.3288,-87.8293,1020.0,11111222 
DISL,ioos:station:DISL:BSCA:1,2018-07-08T13:30:00Z,30.3288,-87.8293,1020.3,11111222 
DISL,ioos:station:DISL:BSCA:1,2018-07-08T14:00:00Z,30.3288,-87.8293,1020.3,11111222 
DISL,ioos:station:DISL:BSCA:1,2018-07-08T14:30:00Z,30.3288,-87.8293,1020.7,11111222 
DISL,ioos:station:DISL:BSCA:1,2018-07-08T15:00:00Z,30.3288,-87.8293,1020.7,11111222 
DISL,ioos:station:DISL:BSCA:1,2018-07-08T15:30:00Z,30.3288,-87.8293,1020.7,11111222 
DISL,ioos:station:DISL:BSCA:1,2018-07-08T16:00:00Z,30.3288,-87.8293,1021.3,11111222 
DISL,ioos:station:DISL:BSCA:1,2018-07-08T16:30:00Z,30.3288,-87.8293,1021.7,11111222 